ETD63 OMAA-EGLL

Flight info

Callsign ETD63
Flight time N/A
Altitude 34000
Route DAXIB Q563 UKUVO G462 TUMAK L602 GADSI M860 KODAV/N0483F360 M860 NINVA UM860 CRM UL746 GOKPA UM10 TIVUG UL852 NEGEM DCT DEGET/N0469F380 DCT BEGLA DCT DITIS DCT OKG DCT VELIS DCT SWALM DCT TORNU DCT BREDA DCT ABNED L980 LOGAN
Aircraft A346/H-SDE2E3FGHIJ3J4J5M1RWXY/LB1D1

Departure

Time 2026-05-06 01:40
Airport Zayed International Airport (OMAA)

Arrival

Time N/A
Airport London Heathrow Airport (EGLL)
Time Latitude Longitude Altitude Speed Heading
2026-05-06 01:32 24.44781 54.64531 84 ft 0 kts 160°
2026-05-06 01:32 24.44778 54.64532 88 ft 2 kts 160°
2026-05-06 01:32 24.44755 54.64543 87 ft 5 kts 155°
2026-05-06 01:33 24.44713 54.64569 89 ft 8 kts 147°
2026-05-06 01:33 24.44666 54.64611 88 ft 9 kts 135°
2026-05-06 01:33 24.44622 54.64668 87 ft 8 kts 129°
2026-05-06 01:33 24.44579 54.64718 88 ft 9 kts 151°
2026-05-06 01:34 24.44515 54.64701 84 ft 11 kts 214°
2026-05-06 01:34 24.44448 54.64646 89 ft 13 kts 218°
2026-05-06 01:34 24.44376 54.64584 84 ft 14 kts 218°
2026-05-06 01:34 24.44311 54.64528 88 ft 11 kts 218°
2026-05-06 01:35 24.44271 54.64458 86 ft 12 kts 255°
2026-05-06 01:35 24.44229 54.64389 87 ft 11 kts 217°
2026-05-06 01:35 24.44200 54.64341 84 ft 8 kts 276°
2026-05-06 01:35 24.44231 54.64283 88 ft 10 kts 308°
2026-05-06 01:36 24.44277 54.64218 86 ft 12 kts 308°
2026-05-06 01:36 24.44331 54.64142 87 ft 13 kts 308°
2026-05-06 01:36 24.44387 54.64065 89 ft 13 kts 308°
2026-05-06 01:36 24.44446 54.63981 84 ft 14 kts 308°
2026-05-06 01:37 24.44506 54.63897 87 ft 11 kts 308°
2026-05-06 01:37 24.44556 54.63825 89 ft 12 kts 307°
2026-05-06 01:37 24.44608 54.63750 87 ft 10 kts 304°
2026-05-06 01:37 24.44602 54.63687 84 ft 9 kts 225°
2026-05-06 01:38 24.44550 54.63635 87 ft 11 kts 219°
2026-05-06 01:38 24.44499 54.63592 90 ft 9 kts 218°
2026-05-06 01:38 24.44452 54.63553 89 ft 7 kts 208°
2026-05-06 01:38 24.44417 54.63560 88 ft 5 kts 138°
2026-05-06 01:39 24.44403 54.63576 85 ft 0 kts 130°
2026-05-06 01:39 24.44402 54.63577 85 ft 1 kts 130°
2026-05-06 01:39 24.44326 54.63681 88 ft 43 kts 128°
2026-05-06 01:39 24.44022 54.64109 91 ft 98 kts 128°
2026-05-06 01:40 24.43499 54.64846 87 ft 145 kts 128°
2026-05-06 01:40 24.42789 54.65849 91 ft 184 kts 128°
2026-05-06 01:40 24.41995 54.66969 506 ft 188 kts 128°
2026-05-06 01:40 24.41177 54.68113 1055 ft 190 kts 128°
2026-05-06 01:41 24.40346 54.69273 1553 ft 196 kts 128°
2026-05-06 01:41 24.39500 54.70470 2012 ft 203 kts 127°
2026-05-06 01:41 24.38612 54.71731 2272 ft 214 kts 127°
2026-05-06 01:41 24.37675 54.73057 2485 ft 224 kts 128°
2026-05-06 01:42 24.36692 54.74444 2678 ft 236 kts 128°
2026-05-06 01:42 24.35660 54.75897 2924 ft 245 kts 128°
2026-05-06 01:42 24.34604 54.77382 3368 ft 247 kts 128°
2026-05-06 01:42 24.33545 54.78870 3819 ft 248 kts 128°
2026-05-06 01:43 24.32478 54.80368 4241 ft 251 kts 128°
2026-05-06 01:43 24.31399 54.81883 4663 ft 254 kts 128°
2026-05-06 01:43 24.30287 54.83443 4929 ft 265 kts 128°
2026-05-06 01:43 24.29132 54.85065 5253 ft 273 kts 128°
2026-05-06 01:44 24.27953 54.86719 5731 ft 276 kts 127°
2026-05-06 01:44 24.27063 54.88547 6172 ft 279 kts 100°
2026-05-06 01:44 24.27186 54.90642 6621 ft 280 kts 66°
2026-05-06 01:44 24.28340 54.92343 7072 ft 282 kts 38°
2026-05-06 01:45 24.29922 54.93630 7536 ft 285 kts 36°
2026-05-06 01:45 24.31556 54.94883 7945 ft 289 kts 26°
2026-05-06 01:45 24.33505 54.95399 8285 ft 293 kts 356°
2026-05-06 01:45 24.35543 54.95076 8639 ft 298 kts 349°
2026-05-06 01:46 24.37595 54.94667 9030 ft 302 kts 349°
2026-05-06 01:46 24.39676 54.94274 9443 ft 304 kts 350°
2026-05-06 01:46 24.41769 54.93898 9877 ft 306 kts 350°
2026-05-06 01:46 24.43879 54.93532 10328 ft 308 kts 351°
2026-05-06 01:47 24.46038 54.93162 10550 ft 319 kts 351°
2026-05-06 01:47 24.48272 54.92749 10764 ft 331 kts 348°
2026-05-06 01:47 24.50541 54.92131 10974 ft 342 kts 343°
2026-05-06 01:47 24.52833 54.91284 11191 ft 354 kts 340°
2026-05-06 01:48 24.55186 54.90336 11413 ft 365 kts 340°
2026-05-06 01:48 24.57611 54.89349 11636 ft 377 kts 340°
2026-05-06 01:48 24.60079 54.88347 11849 ft 389 kts 340°
2026-05-06 01:48 24.62639 54.87312 12229 ft 395 kts 340°
2026-05-06 01:49 24.65230 54.86266 12790 ft 396 kts 340°
2026-05-06 01:49 24.67823 54.85220 13342 ft 398 kts 340°
2026-05-06 01:49 24.70437 54.84165 13858 ft 401 kts 340°
2026-05-06 01:49 24.73017 54.82971 14329 ft 405 kts 329°
2026-05-06 01:50 24.75177 54.80975 14783 ft 409 kts 310°
2026-05-06 01:50 24.76636 54.78293 15291 ft 410 kts 292°
2026-05-06 01:50 24.77665 54.75354 15831 ft 412 kts 290°
2026-05-06 01:50 24.78673 54.72385 16276 ft 416 kts 290°
2026-05-06 01:51 24.79690 54.69391 16742 ft 419 kts 289°
2026-05-06 01:51 24.80593 54.66329 17208 ft 421 kts 286°
2026-05-06 01:51 24.81338 54.63190 17671 ft 424 kts 283°
2026-05-06 01:51 24.82005 54.60011 18127 ft 427 kts 283°
2026-05-06 01:52 24.82667 54.56808 18577 ft 429 kts 283°
2026-05-06 01:52 24.83331 54.53583 19014 ft 432 kts 283°
2026-05-06 01:52 24.83999 54.50347 19444 ft 434 kts 283°
2026-05-06 01:52 24.84671 54.47096 19863 ft 437 kts 283°
2026-05-06 01:53 24.85348 54.43821 20276 ft 439 kts 283°
2026-05-06 01:53 24.87404 54.33865 21463 ft 446 kts 283°
2026-05-06 01:54 24.88093 54.30527 21827 ft 448 kts 283°
2026-05-06 01:54 24.88787 54.27157 22181 ft 450 kts 282°
2026-05-06 01:54 24.89480 54.23784 22547 ft 452 kts 282°
2026-05-06 01:54 24.90177 54.20388 22891 ft 454 kts 283°
2026-05-06 01:55 24.91110 54.17045 23201 ft 457 kts 292°
2026-05-06 01:55 24.92519 54.13954 23519 ft 459 kts 301°
2026-05-06 01:55 24.94406 54.11096 23847 ft 461 kts 310°
2026-05-06 01:55 24.96542 54.08419 24192 ft 463 kts 311°
2026-05-06 01:56 24.98706 54.05781 24497 ft 465 kts 311°
2026-05-06 01:56 25.00889 54.03124 24801 ft 467 kts 311°
2026-05-06 01:56 25.03072 54.00452 25104 ft 468 kts 311°
2026-05-06 01:56 25.05259 53.97763 25416 ft 470 kts 311°
2026-05-06 01:57 25.07457 53.95051 25730 ft 472 kts 311°
2026-05-06 01:57 25.09640 53.92351 26029 ft 473 kts 311°
2026-05-06 01:57 25.11839 53.89626 26333 ft 475 kts 311°
2026-05-06 01:57 25.14032 53.86906 26622 ft 476 kts 310°
2026-05-06 01:58 25.15504 53.85080 26814 ft 477 kts 310°
2026-05-06 01:58 25.17715 53.82337 27103 ft 479 kts 311°
2026-05-06 01:58 25.20016 53.79640 27393 ft 481 kts 314°
2026-05-06 01:58 25.23301 53.76215 27762 ft 484 kts 317°
2026-05-06 01:59 25.24990 53.74613 27949 ft 485 kts 318°
2026-05-06 01:59 25.27579 53.72210 28239 ft 486 kts 319°
2026-05-06 01:59 25.30178 53.69815 28621 ft 484 kts 319°
2026-05-06 01:59 25.32760 53.67436 29037 ft 482 kts 319°
2026-05-06 02:00 25.36193 53.64264 29581 ft 480 kts 318°
2026-05-06 02:00 25.37887 53.62696 29821 ft 479 kts 318°
2026-05-06 02:00 25.40445 53.60324 30207 ft 477 kts 318°
2026-05-06 02:00 25.42988 53.57963 30570 ft 476 kts 318°
2026-05-06 02:01 25.46342 53.54848 31028 ft 475 kts 318°
2026-05-06 02:01 25.48053 53.53259 31242 ft 474 kts 318°
2026-05-06 02:01 25.50577 53.50914 31541 ft 474 kts 318°
2026-05-06 02:01 25.53085 53.48582 31832 ft 474 kts 318°
2026-05-06 02:02 25.55611 53.46233 32121 ft 473 kts 317°
2026-05-06 02:02 25.58135 53.43883 32373 ft 474 kts 317°
2026-05-06 02:02 25.60681 53.41512 32594 ft 475 kts 317°
2026-05-06 02:02 25.63197 53.39124 32799 ft 476 kts 316°
2026-05-06 02:03 25.65684 53.36696 33013 ft 477 kts 316°
2026-05-06 02:03 25.68172 53.34250 33222 ft 478 kts 316°
2026-05-06 02:03 25.70663 53.31804 33431 ft 478 kts 316°
2026-05-06 02:03 25.73158 53.29361 33641 ft 479 kts 316°
2026-05-06 02:04 25.75668 53.26904 33806 ft 480 kts 315°
2026-05-06 02:04 25.78102 53.24349 33805 ft 479 kts 312°
2026-05-06 02:04 25.82492 53.18792 33814 ft 478 kts 305°
2026-05-06 02:05 25.86191 53.12740 33816 ft 475 kts 298°
2026-05-06 02:05 25.89212 53.06220 33819 ft 474 kts 292°
2026-05-06 02:06 25.91930 52.99541 33817 ft 473 kts 292°
2026-05-06 02:06 25.94633 52.92866 33816 ft 473 kts 292°
2026-05-06 02:07 25.97343 52.86180 33816 ft 473 kts 292°
2026-05-06 02:07 26.00050 52.79498 33810 ft 473 kts 292°
2026-05-06 02:08 26.02825 52.72866 33808 ft 472 kts 294°
2026-05-06 02:08 26.05762 52.66336 33807 ft 471 kts 294°
2026-05-06 02:09 26.08704 52.59810 33807 ft 471 kts 294°
2026-05-06 02:09 26.11626 52.53309 33807 ft 471 kts 294°
2026-05-06 02:10 26.14568 52.46781 33807 ft 471 kts 294°
2026-05-06 02:10 26.17510 52.40256 33807 ft 471 kts 294°
2026-05-06 02:11 26.20452 52.33717 33807 ft 471 kts 294°
2026-05-06 02:11 26.23363 52.27162 33799 ft 471 kts 294°
2026-05-06 02:12 26.26207 52.20570 33797 ft 471 kts 293°
2026-05-06 02:12 26.29053 52.13971 33797 ft 472 kts 293°
2026-05-06 02:13 26.31902 52.07372 33796 ft 472 kts 293°
2026-05-06 02:13 26.34754 52.00775 33789 ft 471 kts 293°
2026-05-06 02:14 26.37531 51.94137 33788 ft 470 kts 290°
2026-05-06 02:14 26.39890 51.87326 33788 ft 470 kts 288°
2026-05-06 02:15 26.42181 51.80491 33788 ft 470 kts 288°
2026-05-06 02:15 26.44471 51.73655 33792 ft 469 kts 288°
2026-05-06 02:16 26.46758 51.66822 33811 ft 469 kts 288°
2026-05-06 02:16 26.49028 51.60021 33817 ft 469 kts 288°
2026-05-06 02:17 26.51303 51.53182 33836 ft 469 kts 288°
2026-05-06 02:17 26.53577 51.46339 33837 ft 469 kts 288°
2026-05-06 02:18 26.55849 51.39488 33835 ft 468 kts 288°
2026-05-06 02:18 26.56979 51.36078 33835 ft 468 kts 288°